Regional Weather Roundup
Issued by NWS

Home | Current Version | Previous Version | Text Only | Print | Product List | Glossary Off
Versions: 1 2 3 4 5 6 7 8 9 10 11 12 13 14 15 16 17 18 19 20 21 22 23 24 25 26 27 28 29 30 31 32 33 34 35 36 37 38 39 40 41 42 43 44 45 46 47 48 49 50

897
ASUS43 KMKX 282100
RWRWI

WISCONSIN REGIONAL WEATHER ROUNDUP
NATIONAL WEATHER SERVICE MILWAUKEE/SULLIVAN WI
400 PM CDT WED JUN 28 2017

NOTE: "FAIR" INDICATES FEW OR NO CLOUDS BELOW 12,000 FEET WITH NO
SIGNIFICANT WEATHER AND/OR OBSTRUCTIONS TO VISIBILITY.

WIZ001-002-006>008-014>016-023>028-282200-
NORTHWEST WISCONSIN

CITY           SKY/WX    TMP DP  RH WIND       PRES   REMARKS
SUPERIOR ARPT  NOT AVBL
ASHLAND        LGT RAIN  64  63  96 E5        29.59F FOG
HAYWARD        CLOUDY    67  63  87 S7        29.58F
SIREN          LGT RAIN  70  66  88 S10G16    29.53F
CUMBERLAND     CLOUDY    68  64  88 S17       29.57F
RICE LAKE      CLOUDY    70  65  85 SE15G21   29.59F
CHETEK         CLOUDY    72  67  84 S17       29.58F
LADYSMITH      LGT RAIN  67  65  94 S9        29.64F
EAU CLAIRE     NOT AVBL
MENOMONIE      LGT RAIN  72  66  82 SE12      29.56F
NEW RICHMOND   CLOUDY    75  65  70 S13G20    29.52F
OSCEOLA        CLOUDY    76  68  76 SE10      29.53F
$$

WIZ003>005-009-010-017-018-282200-
NORTH CENTRAL WISCONSIN

CITY           SKY/WX    TMP DP  RH WIND       PRES   REMARKS
MANITOWISH WTR RAIN      61  61 100 S7        29.67F
ARBOR VITAE    CLOUDY    62  60  94 S10G16    29.67F
WOODRUFF       CLOUDY    62  60  94 S10G16    29.67F
RHINELANDER    CLOUDY    61  61 100 S7        29.71S
EAGLE RIVER    DRIZZLE   62  61  97 S7        29.71R
LAND O LAKES   DRIZZLE   62  61  95 S8        29.72S
PHILLIPS       LGT RAIN  63  63 100 S7        29.65S
TOMAHAWK       NOT AVBL
MEDFORD        CLOUDY    65  63  91 S13       29.66F
MERRILL        CLOUDY    64  64 100 S7        29.70F
$$

WIZ029-030-035-036-043>047-282200-
CENTRAL WISCONSIN

CITY           SKY/WX    TMP DP  RH WIND       PRES   REMARKS
WAUSAU         CLOUDY    67  65  93 S9        29.68F
MOSINEE        NOT AVBL
MARSHFIELD     CLOUDY    67  63  87 S17G28    29.67F
STEVENS POINT  RAIN      66  65  95 S9G20     29.73R
WAUPACA        CLOUDY    69  67  94 S15       29.75R
WAUTOMA        LGT RAIN  65  64  97 S9        29.74F
WISC RAPIDS    CLOUDY    67  65  93 S12G20    29.71F
CAMP DOUGLAS   CLOUDY    66  66 100 SE10      29.68F
$$

WIZ011>013-019>022-031-037>040-048>050-282200-
NORTHEAST WISCONSIN

CITY           SKY/WX    TMP DP  RH WIND       PRES   REMARKS
ANTIGO         CLOUDY    60  60 100 S12       29.74S
SHAWANO        CLOUDY    66  63  88 S5        29.73F
OCONTO         CLOUDY    62  61  97 S8        29.75F
STURGEON BAY   LGT RAIN  59  58  96 S18G25    29.77F
GREEN BAY      CLOUDY    67  66  97 S12G20    29.75F
MANITOWOC      NOT AVBL
APPLETON       CLOUDY    66  66 100 S14G23    29.74F
CLINTONVILLE   CLOUDY    64  63  94 S10G16    29.74R
OSHKOSH        LGT RAIN  65  63  93 S12       29.76F
$$

WIZ032>034-041-042-053>061-282200-
SOUTHWEST WISCONSIN

CITY           SKY/WX    TMP DP  RH WIND       PRES   REMARKS
LA CROSSE      LGT RAIN  74  69  85 S17       29.60F
SPARTA         DRIZZLE   68  66  93 S9G16     29.66F
VIROQUA        CLOUDY    67  67 100 S16G22    29.69F
BOSCOBEL       LGT RAIN  74  68  81 MISG      29.68F
PRAIRIE DU CHI CLOUDY    73  67  82 SE7       29.68F
PLATTEVILLE    PTSUNNY   74  71  92 S12G20    29.77S
$$

WIZ056-057-062-063-064-067-068-282200-
SOUTH CENTRAL WISCONSIN

CITY           SKY/WX    TMP DP  RH WIND       PRES   REMARKS
REEDSBURG      LGT RAIN  66  66 100 S7        29.73F
BARABOO/DELLS  DRIZZLE   66  64  93 S9        29.76S
LONE ROCK      NOT AVBL
MINERAL POINT  CLOUDY    72  70  94 S8        29.77S
MADISON        CLOUDY    71  65  81 S16G25    29.76R
MIDDLETON      CLOUDY    72  66  83 S13G21    29.77R
WATERTOWN      CLOUDY    69  67  94 S9G17     29.78F
MONROE         CLOUDY    70  64  83 S21G26    29.79R
JANESVILLE     CLOUDY    73  64  73 S14G21    29.79S
$$

WIZ051-052-058>065-066-070>072-282200-
SOUTHEAST WISCONSIN

CITY           SKY/WX    TMP DP  RH WIND       PRES   REMARKS
MILWAUKEE      CLOUDY    74  64  71 S14G28    29.80F
WAUKESHA       PTSUNNY   70  63  78 S9G21     29.81F
MILWAUKEE/TIMM MOSUNNY   70  61  73 S12G18    29.81F
RACINE         LGT RAIN  74  61  63 S12G22    29.83F
KENOSHA        PTSUNNY   73  61  65 S15G25    29.82F
FOND DU LAC    LGT RAIN  66  62  87 S10       29.78F
SHEBOYGAN      LGT RAIN  62  62 100 S10       29.80F FOG
WEST BEND      CLOUDY    64  63  94 S7        29.82R
JUNEAU         TSTM      65  63  92 CALM      29.82R VSB 1
$$

LSZ147-162-282200-
LAKE SUPERIOR

STATION/POSITION TIME  TEMP    WIND        PRES    WAVE
                       AIR SEA DIR/SP/G            HT/PER
                 (UTC) (F)     (DEG/KT/KT) (MB)    (FT/S)
W MID LAKE BUOY  1950   45 39  110/  8/ 10 1004.6F   1
DEVILS ISLAND    2000   53      60/ 11/ 12 1003.3F
SAXON HARBOR     2030   67     190/  4/  9 1002.4S
$$

LMZ867-665-643>646-282200-
LAKE MICHIGAN

STATION/POSITION TIME  TEMP    WIND        PRES    WAVE
                       AIR SEA DIR/SP/G            HT/PER
                 (UTC) (F)     (DEG/KT/KT) (MB)    (FT/S)
CHAMBERS ISLAND  2040   62     150/  4/ 12 1008.1F
S GREEN BAY BUOY 2030   63     160/ 16/ 17 1007.4F
N MID LAKE BUOY  1950   57 53  180/ 21/ 25 1010.3F   6/ 6
NORTHPORT PIER   2040   61     160/  9/ 16 1008.8F
KEWAUNEE LAKESHO 2030   54     180/ 15/ 16 1008.6F
SHEBOYGAN LAKESH 2000   55     190/ 16/ 17 1009.7F
PORT WASHINGTON  2030   58     200/  5/ 10 1010.5S
ATWATER BUOY     1909   60 52  150/ 12/ 14 1010.3F
MILWAUKEE LAKESH 2030   60     140/ 12/ 13   N/A
S MID LAKE BUOY  1950   65 60  170/ 17/ 19 1010.9F   4/ 5
KENOSHA   LAKESH 2000   62     180/ 11/ 16 1010.5
$$

TC  - TEMPERATURE IN CELSIUS
VSB - VISIBILITY IN STATUTE MILES
WCI - WIND CHILL INDEX
HX  - HEAT INDEX





USA.gov is the U.S. government's official web portal to all federal, state and local government web resources and services.